Regional Weather Roundup
Issued by NWS

Home | Current Version | Previous Version | Graphics & Text | Print | Product List | Glossary On
Versions: 1 2 3 4 5 6 7 8 9 10 11 12 13 14 15 16 17 18 19 20 21 22 23 24 25 26 27 28 29 30 31 32 33 34 35 36 37 38 39 40 41 42 43 44 45 46 47 48 49 50
000
ASUS43 KMPX 240001
RWRMN
WEATHER ROUNDUP FOR MINNESOTA
NATIONAL WEATHER SERVICE TWIN CITIES/CHANHASSEN MN
600 PM CST THU NOV 23 2017


NOTE: "FAIR" INDICATES FEW OR NO CLOUDS BELOW 12,000 FEET WITH NO
SIGNIFICANT WEATHER AND/OR OBSTRUCTIONS TO VISIBILITY. N/A MEANS
CURRENT SKY AND/OR WEATHER CONDITIONS ARE NOT AVAILABLE.

MNZ060>063-068>070-240100-
   Twin Cities Metro

CITY           SKY/WX    TMP DP  RH WIND       PRES   REMARKS
TWIN CITIES    CLOUDY    43  27  53 S9        29.76F
6HR MIN TEMP:  38; 6HR MAX TEMP:  45;

ST PAUL        CLOUDY    41  27  57 SE6       29.77F
CRYSTAL        CLOUDY    41  23  48 S10       29.73F
BLAINE         PTCLDY    41  27  56 S8        29.74F
LAKEVILLE      CLOUDY    36  27  69 S5        29.77F
EDEN PRAIRIE   CLOUDY    41  25  53 S8        29.74F
6HR MIN TEMP:  38; 6HR MAX TEMP:  46;

SOUTH ST PAUL  CLOUDY    42  25  51 S5        29.76F
LAKE ELMO      MOCLDY    39  27  60 SE5       29.77F
$$
MNZ001>005-007-008-013>017-022>024-027-028-240100-
   Northwest Minnesota

CITY           SKY/WX    TMP DP  RH WIND       PRES   REMARKS
BEMIDJI        CLOUDY    30  26  84 SE7       29.55F WCI  23
HALLOCK        PTCLDY    32  30  93 S16       29.43F WCI  21
ROSEAU         PTCLDY    30  25  80 S7        29.50F WCI  23
WARROAD        CLOUDY    28  25  86 S7        29.51F WCI  21
CROOKSTON      CLEAR     37  28  70 S16       29.50F
FOSSTON        CLEAR     34  28  80 S12       29.52F WCI  25
DETROIT LAKES  CLEAR     37  30  75 S10       29.58F
MOORHEAD       CLEAR     41  28  60 S14       29.56F
PARK RAPIDS    CLEAR     38  29  70 S10       29.59F
MAHNOMEN       FAIR      38  30  71 S13       29.54F
$$
MNZ006-009>011-018-025>026-240100-
   North Central Minnesota

CITY           SKY/WX    TMP DP  RH WIND       PRES   REMARKS
BAUDETTE       CLOUDY    26  23  88 SE9       29.52F WCI  17
FLAG ISLAND    CLOUDY    27  25  93 S17       29.50F WCI  14
INTL FALLS     CLOUDY    28  21  75 SE5       29.57F WCI  23
6HR MIN TEMP:  26; 6HR MAX TEMP:  31;

WASKISH        PTCLDY    28  25  86 SE6       29.53F WCI  22
BIG FORK       CLOUDY    34  25  69 S7        29.58F WCI  28
LONGVILLE      CLEAR     36  27  69 S10       29.61F
GRAND RAPIDS   CLOUDY    35  25  66 S12       29.63F WCI  27
CRANE LAKE     CLOUDY    30  25  80 S3        29.62F
ORR            CLOUDY    30  21  69 SE5       29.57F WCI  25
COOK           CLEAR     34  25  69 S8        29.61F WCI  27
WALKER         FAIR      37  28  70 S9        29.59F
$$
MNZ012-019>021-037-240100-
   Northeast Minnesota

CITY           SKY/WX    TMP DP  RH WIND       PRES   REMARKS
DULUTH         CLOUDY    35  25  66 S13       29.67F WCI  26
6HR MIN TEMP:  30; 6HR MAX TEMP:  35;

ELY            CLOUDY    32  25  74 S6        29.62F WCI  26
HIBBING        PTCLDY    32  24  72 S5        29.62F WCI  27
EVELETH        CLOUDY    32  23  70 SE5       29.64F WCI  28
DULUTH HARBOR  CLOUDY    37  28  70 CALM      29.71F
TWO HARBORS    CLOUDY    37  28  70 CALM      29.67F
SILVER BAY     CLOUDY    34  30  86 CALM      29.68F
GRAND MARAIS     N/A     36  29  75 S9        29.72F
G MARAIS ARPRT CLOUDY    27  21  80 CALM      29.67F
$$
MNZ029>031-032-039>041-046>048-054>057-064-240100-
   West Central Minnesota

CITY           SKY/WX    TMP DP  RH WIND       PRES   REMARKS
FERGUS FALLS   PTCLDY    39  30  70 S12       29.62F
MORRIS         CLEAR     39  28  65 SE10      29.63F
ALEXANDRIA     CLEAR     40  30  67 S9        29.64F
ELBOW LAKE     FAIR      40  30  68 S13       29.62F
WADENA         CLEAR     36  28  75 S6        29.62F
GLENWOOD       CLEAR     39  30  70 S10       29.65F
APPLETON       CLEAR     46  34  61 S8        29.64F
BENSON         CLEAR     43  30  61 S9        29.66F
ORTONVILLE     CLEAR     46  36  66 N8        29.63F
MADISON        CLEAR     48  36  61 S6        29.64F
WILLMAR        FAIR      39  30  70 S8        29.70F
$$
MNZ033>034-036-042>043-049>051-058-059-240100-
   Central Minnesota

CITY           SKY/WX    TMP DP  RH WIND       PRES   REMARKS
ST CLOUD       CLOUDY    37  27  67 SE9       29.70F
6HR MIN TEMP:  37; 6HR MAX TEMP:  44;

SAUK CENTRE    FAIR      36  29  75 SE9       29.67F
PAYNESVILLE    CLEAR     41  31  67 S9        29.69F
AITKIN         CLEAR     36  25  64 S9        29.64F
PINE RIVER     CLEAR     36  27  69 S6        29.67F
BRAINERD       CLEAR     37  26  64 S10       29.65F
STAPLES        CLEAR     36  27  69 S8        29.64F
LITTLE FALLS   CLEAR     37  21  52 SE7       29.68F
LITCHFIELD     CLEAR     41  30  65 S5        29.71F
BUFFALO        CLEAR     39  26  58 S6        29.73F
MAPLE LAKE     CLOUDY    40  29  65 S6        29.73F
HUTCHINSON     PTCLDY    39  30  69 SE3       29.74F
$$
MNZ037-044-045-052-053-240100-
   East Central Minnesota

CITY           SKY/WX    TMP DP  RH WIND       PRES   REMARKS
PRINCETON      CLOUDY    37  25  60 SE6       29.72F
MORA           CLOUDY    36  27  69 S5        29.72F
CAMBRIDGE      CLOUDY    41  27  56 S7        29.73F
MOOSE LAKE     CLOUDY    36  25  64 S7        29.67F
HINCKLEY       CLOUDY    37  27  65 S6        29.71F
CLOQUET        CLOUDY    36  23  60 S6        29.67F
MCGREGOR       PTCLDY    36  27  69 S7        29.66F
$$
MNZ071>073-080-081-089-090-097-098-240100-
   Southwest Minnesota

CITY           SKY/WX    TMP DP  RH WIND       PRES   REMARKS
MONTEVIDEO     CLEAR     46  34  61 S8        29.66F
GRANITE FALLS  CLEAR     44  33  64 SE9       29.70F
CANBY          CLEAR     54  37  52 SW14      29.66F
MARSHALL       CLEAR     50  35  56 SW17      29.67F
REDWOOD FALLS  CLEAR     41  28  60 S13       29.71F
OLIVIA         CLOUDY    41  30  65 S9        29.70F
PIPESTONE      CLOUDY    45  34  65 S9        29.73F
WINDOM         CLOUDY    46  28  49 S10       29.76S
WORTHINGTON    CLOUDY    49  34  56 S14       29.76F
JACKSON        CLOUDY    45  32  61 S12       29.77F
SLAYTON        CLEAR     47  34  61 S12       29.75F
$$
MNZ065>067-074>077-082>085-091>093-240100-
   South Central Minnesota

CITY           SKY/WX    TMP DP  RH WIND       PRES   REMARKS
MANKATO        CLEAR     42  29  59 S12       29.77F
NEW ULM        CLEAR     43  28  56 CALM      29.75S
ST JAMES       CLEAR     45  30  57 S10       29.77F
FAIRMONT       CLEAR     41  30  65 S12       29.78F
GLENCOE        CLEAR     41  29  61 S5        29.74S
FARIBAULT      CLEAR     39  28  65 S6        29.79S
OWATONNA       CLEAR     39  28  65 S8        29.79F
WASECA         CLEAR     39  28  65 S10       29.79F
ALBERT LEA     CLEAR     43  27  52 S7        29.80F
$$
MNZ078>079-086>088-094>096-240100-
   Southeast Minnesota

CITY           SKY/WX    TMP DP  RH WIND       PRES   REMARKS
ROCHESTER      CLEAR     36  26  67 S9        29.82F
6HR MIN TEMP:  35; 6HR MAX TEMP:  46;

RED WING       CLEAR     36  21  55 SE5       29.79F
STANTON        CLEAR     40  28  61 S9        29.76F
DODGE CENTER   CLEAR     34  25  69 S8        29.81S WCI  27
WINONA         CLEAR     36  27  69 S3        29.85F
PRESTON        CLEAR     37  25  62 S6        29.84F
$$
ABBREVIATIONS USED IN REMARKS
   TC - TEMPERATURES IN CELSIUS
  WCI - WIND CHILL INDEX
   HX - HEAT INDEX
  VSB - VISIBILITY
$$




USA.gov is the U.S. government's official web portal to all federal, state and local government web resources and services.